Location: Unspecified
(54.1780°N, 0.0000°E)
Time: 22:36:31
(UTC+00:00)

Tiros 1 - Visible Passes

Search period start: 17 June 2019 00:00
Search period end: 27 June 2019 00:00
Orbit: 631 x 664 km, 48.4° (Epoch: 17 June)

Date Brightness Start Highest point End Pass type
(mag) Time Alt. Az. Time Alt. Az. Time Alt. Az.
17 Jun 9.1 00:43:44 11° SSE 00:44:42 12° SE 00:46:23 10° ESE visible
17 Jun 8.1 02:21:49 10° SW 02:25:51 30° SSE 02:29:52 10° E visible
18 Jun 8.6 01:08:10 15° S 01:10:14 20° SSE 01:13:34 10° ESE visible
18 Jun 9.2 23:54:52 11° SE 23:54:52 11° SE 23:56:07 10° ESE visible
19 Jun 8.1 01:32:29 13° SW 01:35:54 29° SSE 01:39:53 10° E visible
20 Jun 8.6 00:19:07 17° SSE 00:20:17 19° SSE 00:23:33 10° ESE visible
20 Jun 7.7 01:57:24 10° SW 02:01:41 37° SSE 02:05:57 10° ESE visible
20 Jun 9.2 23:05:37 10° SE 23:05:37 10° SE 23:05:42 10° SE visible
21 Jun 8.1 00:43:13 16° SSW 00:45:57 28° SSE 00:49:54 10° E visible
21 Jun 7.6 02:23:09 10° WSW 02:27:32 41° S 02:31:53 10° ESE visible
21 Jun 8.5 23:29:32 17° SSE 23:30:21 18° SSE 23:33:31 10° ESE visible
22 Jun 7.7 01:07:27 10° SW 01:11:44 36° SSE 01:15:59 10° ESE visible
22 Jun 8.1 23:53:02 15° SSW 23:56:00 27° SSE 23:59:55 10° E visible
23 Jun 7.5 01:33:11 10° WSW 01:37:34 41° S 01:41:56 10° ESE visible
23 Jun 8.6 22:37:55 12° S 22:40:26 17° SSE 22:43:28 10° ESE visible
24 Jun 7.7 00:17:30 10° SW 00:21:46 35° SSE 00:26:01 10° E visible
24 Jun 7.6 01:59:04 10° WSW 02:03:26 40° S 02:07:46 10° ESE visible
24 Jun 8.1 23:02:10 10° SSW 23:06:03 26° SSE 23:09:56 10° E visible
25 Jun 7.5 00:43:13 10° WSW 00:47:37 41° S 00:51:58 10° ESE visible
25 Jun 7.8 02:25:04 10° W 02:29:16 33° SSW 02:33:24 10° SE visible
25 Jun 8.6 21:47:32 10° S 21:50:29 17° SE 21:53:25 10° ESE visible
25 Jun 7.7 23:27:33 10° SW 23:31:49 35° SSE 23:36:03 10° E visible
26 Jun 7.5 01:09:05 10° WSW 01:13:28 40° S 01:17:49 10° ESE visible
26 Jun 8.1 22:12:15 10° SSW 22:16:06 25° SSE 22:19:56 10° E visible
